| time (UTC) | temp F | wind direction | speed MPH | gust MPH | rain 1hr in | rain 24hr in | rain mn in | humidity % | barometer mb |
| 20260502195316 | 75 | 39 | 0.0 | 0.0 | 0.00 | 0.01 | 0.01 | 47 | 1019.3 |
| 20260502194813 | 74 | 90 | 0.0 | 1.0 | 0.00 | 0.01 | 0.01 | 42 | 1019.0 |
| 20260502194310 | 73 | 139 | 0.0 | 1.0 | 0.00 | 0.01 | 0.01 | 44 | 1019.2 |
| 20260502193805 | 73 | 151 | 0.0 | 1.0 | 0.00 | 0.01 | 0.01 | 43 | 1019.5 |
| 20260502193303 | 73 | 175 | 1.0 | 2.0 | 0.00 | 0.01 | 0.01 | 45 | 1019.6 |
| 20260502192758 | 73 | 87 | 0.0 | 0.0 | 0.00 | 0.01 | 0.01 | 44 | 1019.3 |
| 20260502192256 | 73 | 96 | 0.0 | 0.0 | 0.00 | 0.01 | 0.01 | 47 | 1019.5 |
| 20260502191752 | 73 | 115 | 0.0 | 0.0 | 0.00 | 0.01 | 0.01 | 51 | 1019.7 |
| 20260502191250 | 73 | 126 | 2.0 | 3.0 | 0.00 | 0.01 | 0.01 | 44 | 1019.7 |
| 20260502190747 | 73 | 103 | 0.0 | 0.0 | 0.00 | 0.01 | 0.01 | 45 | 1019.8 |
| 20260502190245 | 73 | 148 | 0.0 | 1.0 | 0.00 | 0.01 | 0.01 | 44 | 1020.0 |
| 20260502185745 | 73 | 70 | 0.0 | 0.0 | 0.00 | 0.01 | 0.01 | 44 | 1019.7 |
| 20260502185241 | 73 | 133 | 0.0 | 0.0 | 0.00 | 0.01 | 0.01 | 49 | 1019.9 |
| 20260502184738 | 72 | 105 | 0.0 | 0.0 | 0.00 | 0.01 | 0.01 | 49 | 1019.9 |
| 20260502184234 | 72 | 153 | 0.0 | 0.0 | 0.00 | 0.01 | 0.01 | 53 | 1020.0 |
| 20260502183731 | 72 | 81 | 0.0 | 0.0 | 0.00 | 0.01 | 0.01 | 48 | 1019.8 |
| 20260502183226 | 72 | 105 | 0.0 | 1.0 | 0.00 | 0.01 | 0.01 | 48 | 1019.9 |
| 20260502182722 | 72 | 82 | 1.0 | 1.0 | 0.00 | 0.01 | 0.01 | 50 | 1020.1 |
| 20260502182217 | 71 | 113 | 0.0 | 0.0 | 0.00 | 0.01 | 0.01 | 52 | 1020.2 |
| 20260502181715 | 71 | 126 | 0.0 | 0.0 | 0.00 | 0.01 | 0.01 | 47 | 1020.4 |
| 20260502181214 | 71 | 88 | 0.0 | 1.0 | 0.00 | 0.01 | 0.01 | 50 | 1020.2 |
| 20260502180711 | 71 | 121 | 0.0 | 0.0 | 0.00 | 0.01 | 0.01 | 52 | 1020.2 |
| 20260502180208 | 71 | 93 | 0.0 | 0.0 | 0.00 | 0.01 | 0.01 | 48 | 1020.4 |
| 20260502170132 | 69 | 104 | 0.0 | 1.0 | 0.00 | 0.01 | 0.01 | 59 | 1020.8 |
| 20260502164119 | 69 | 222 | 0.0 | 1.0 | 0.00 | 0.01 | 0.01 | 61 | 1020.9 |
| 20260502163615 | 68 | 112 | 0.0 | 0.0 | 0.00 | 0.01 | 0.01 | 61 | 1020.9 |
| 20260502163111 | 68 | 115 | 0.0 | 1.0 | 0.00 | 0.01 | 0.01 | 61 | 1021.0 |
| 20260502162608 | 68 | 73 | 0.0 | 0.0 | 0.00 | 0.01 | 0.01 | 71 | 1020.9 |
| 20260502162106 | 68 | 258 | 2.0 | 2.0 | 0.00 | 0.01 | 0.01 | 63 | 1020.9 |
| 20260502161603 | 67 | 200 | 0.0 | 1.0 | 0.00 | 0.01 | 0.01 | 67 | 1020.7 |
| 20260502161100 | 67 | 102 | 0.0 | 0.0 | 0.00 | 0.01 | 0.01 | 67 | 1021.0 |
| 20260502160558 | 67 | 69 | 1.0 | 1.0 | 0.00 | 0.01 | 0.01 | 66 | 1020.8 |
| 20260502152005 | 63 | 179 | 1.0 | 1.0 | 0.00 | 0.01 | 0.01 | 78 | 1020.7 |
| 20260502151501 | 63 | 125 | 0.0 | 0.0 | 0.00 | 0.01 | 0.01 | 81 | 1020.7 |
| 20260502150959 | 62 | 124 | 0.0 | 0.0 | 0.00 | 0.01 | 0.01 | 81 | 1020.7 |
| 20260502150456 | 62 | 34 | 1.0 | 1.0 | 0.00 | 0.01 | 0.01 | 89 | 1020.7 |
| 20260502130341 | 51 | 106 | 0.0 | 0.0 | 0.00 | 0.00 | 0.00 | 99 | 1019.8 |
| 20260502123324 | 50 | 106 | 0.0 | 0.0 | 0.00 | 0.00 | 0.00 | 99 | 1019.6 |
| 20260502122821 | 49 | 111 | 0.0 | 0.0 | 0.00 | 0.00 | 0.00 | 99 | 1019.5 |
| 20260502122316 | 49 | 111 | 0.0 | 0.0 | 0.00 | 0.00 | 0.00 | 99 | 1019.4 |
| 20260502121815 | 49 | 102 | 0.0 | 0.0 | 0.00 | 0.00 | 0.00 | 99 | 1019.0 |
| 20260502121312 | 49 | 102 | 0.0 | 0.0 | 0.00 | 0.00 | 0.00 | 99 | 1019.2 |
| 20260502120809 | 49 | 102 | 0.0 | 0.0 | 0.00 | 0.00 | 0.00 | 99 | 1019.0 |
| 20260502120305 | 49 | 102 | 0.0 | 0.0 | 0.00 | 0.00 | 0.00 | 99 | 1019.0 |
| 20260502115803 | 49 | 102 | 0.0 | 0.0 | 0.00 | 0.00 | 0.00 | 99 | 1019.0 |
| 20260502115300 | 49 | 102 | 0.0 | 0.0 | 0.00 | 0.00 | 0.00 | 99 | 1018.9 |
| 20260502114756 | 49 | 102 | 0.0 | 0.0 | 0.00 | 0.00 | 0.00 | 99 | 1018.8 |
| 20260502114253 | 49 | 101 | 0.0 | 0.0 | 0.00 | 0.00 | 0.00 | 99 | 1018.6 |
| 20260502113750 | 49 | 104 | 0.0 | 0.0 | 0.00 | 0.00 | 0.00 | 99 | 1018.7 |
| 20260502113248 | 49 | 110 | 0.0 | 0.0 | 0.00 | 0.00 | 0.00 | 99 | 1018.4 |
| 20260502112746 | 49 | 110 | 0.0 | 0.0 | 0.00 | 0.00 | 0.00 | 99 | 1018.3 |
| 20260502112243 | 50 | 110 | 0.0 | 0.0 | 0.00 | 0.00 | 0.00 | 99 | 1018.3 |
| 20260502111740 | 50 | 110 | 0.0 | 0.0 | 0.00 | 0.00 | 0.00 | 99 | 1018.1 |
| 20260502111238 | 50 | 111 | 0.0 | 0.0 | 0.00 | 0.00 | 0.00 | 99 | 1018.2 |
| 20260502110735 | 50 | 104 | 0.0 | 0.0 | 0.00 | 0.00 | 0.00 | 99 | 1018.3 |
| 20260502110233 | 50 | 107 | 0.0 | 0.0 | 0.00 | 0.00 | 0.00 | 99 | 1018.3 |
| 20260502105731 | 50 | 106 | 0.0 | 0.0 | 0.00 | 0.00 | 0.00 | 99 | 1018.0 |
| 20260502105226 | 50 | 107 | 0.0 | 0.0 | 0.00 | 0.00 | 0.00 | 99 | 1018.1 |
| 20260502104725 | 50 | 107 | 0.0 | 0.0 | 0.00 | 0.00 | 0.00 | 99 | 1018.1 |
| 20260502104222 | 50 | 107 | 0.0 | 0.0 | 0.00 | 0.00 | 0.00 | 99 | 1018.1 |
| 20260502103719 | 51 | 107 | 0.0 | 0.0 | 0.00 | 0.00 | 0.00 | 99 | 1017.9 |
| 20260502103217 | 51 | 108 | 0.0 | 0.0 | 0.00 | 0.00 | 0.00 | 99 | 1017.9 |
| 20260502102713 | 51 | 108 | 0.0 | 0.0 | 0.00 | 0.00 | 0.00 | 99 | 1017.8 |
| 20260502102210 | 51 | 108 | 0.0 | 0.0 | 0.00 | 0.00 | 0.00 | 99 | 1017.9 |
| 20260502101708 | 51 | 108 | 0.0 | 0.0 | 0.00 | 0.00 | 0.00 | 99 | 1018.0 |
| 20260502101207 | 51 | 107 | 0.0 | 0.0 | 0.00 | 0.00 | 0.00 | 99 | 1017.8 |
| 20260502100704 | 51 | 111 | 0.0 | 0.0 | 0.00 | 0.00 | 0.00 | 99 | 1018.0 |
| 20260502100202 | 51 | 112 | 0.0 | 0.0 | 0.00 | 0.00 | 0.00 | 99 | 1017.8 |
| 20260502091136 | 52 | 110 | 0.0 | 0.0 | 0.00 | 0.00 | 0.00 | 99 | 1017.4 |
| 20260502090633 | 52 | 108 | 0.0 | 0.0 | 0.00 | 0.00 | 0.00 | 99 | 1017.2 |
| 20260502090131 | 52 | 110 | 0.0 | 0.0 | 0.00 | 0.00 | 0.00 | 99 | 1017.5 |
| 20260502071528 | 54 | 110 | 0.0 | 0.0 | 0.00 | 0.00 | 0.00 | 99 | 1017.5 |
| 20260502071026 | 54 | 110 | 0.0 | 0.0 | 0.00 | 0.00 | 0.00 | 99 | 1017.5 |
| 20260502070524 | 54 | 110 | 0.0 | 0.0 | 0.00 | 0.00 | 0.00 | 99 | 1017.5 |
| 20260502070022 | 54 | 108 | 0.0 | 0.0 | 0.00 | 0.00 | 0.00 | 99 | 1017.3 |
| 20260502065520 | 54 | 110 | 0.0 | 0.0 | 0.00 | 0.00 | 0.00 | 99 | 1017.5 |
| 20260502065017 | 54 | 110 | 0.0 | 0.0 | 0.00 | 0.00 | 0.00 | 99 | 1017.5 |
| 20260502064516 | 54 | 110 | 0.0 | 0.0 | 0.00 | 0.00 | 0.00 | 99 | 1017.6 |
| 20260502064012 | 54 | 110 | 0.0 | 0.0 | 0.00 | 0.00 | 0.00 | 99 | 1017.6 |
| 20260502063510 | 54 | 110 | 0.0 | 0.0 | 0.00 | 0.00 | 0.00 | 99 | 1017.6 |
| 20260502063008 | 55 | 110 | 0.0 | 0.0 | 0.00 | 0.00 | 0.00 | 99 | 1017.5 |
| 20260502062504 | 55 | 111 | 0.0 | 0.0 | 0.00 | 0.00 | 0.00 | 99 | 1017.6 |
| 20260502062003 | 55 | 110 | 0.0 | 0.0 | 0.00 | 0.00 | 0.00 | 99 | 1017.5 |
| 20260502061501 | 55 | 110 | 0.0 | 0.0 | 0.00 | 0.00 | 0.00 | 99 | 1017.5 |
| 20260502060956 | 55 | 102 | 0.0 | 0.0 | 0.00 | 0.00 | 0.00 | 99 | 1017.5 |
| 20260502060452 | 55 | 106 | 0.0 | 0.0 | 0.00 | 0.00 | 0.00 | 99 | 1017.2 |
| 20260502055949 | 55 | 94 | 0.0 | 0.0 | 0.00 | 0.00 | 0.00 | 99 | 1017.3 |
| 20260502055447 | 55 | 107 | 0.0 | 0.0 | 0.00 | 0.00 | 0.00 | 99 | 1017.3 |
| 20260502054941 | 55 | 109 | 0.0 | 0.0 | 0.00 | 0.00 | 0.00 | 99 | 1017.3 |
| 20260502054438 | 54 | 107 | 0.0 | 0.0 | 0.00 | 0.00 | 0.00 | 99 | 1017.2 |
| 20260502053935 | 54 | 107 | 0.0 | 0.0 | 0.00 | 0.00 | 0.00 | 99 | 1017.3 |
| 20260502053432 | 54 | 107 | 0.0 | 0.0 | 0.00 | 0.00 | 0.00 | 99 | 1017.4 |
| 20260502052930 | 54 | 103 | 0.0 | 0.0 | 0.00 | 0.00 | 0.00 | 99 | 1017.3 |
| 20260502052428 | 54 | 103 | 0.0 | 0.0 | 0.00 | 0.00 | 0.00 | 99 | 1017.2 |
| 20260502051926 | 54 | 103 | 0.0 | 0.0 | 0.00 | 0.00 | 0.00 | 99 | 1017.4 |
| 20260502051424 | 54 | 102 | 0.0 | 0.0 | 0.00 | 0.00 | 0.00 | 99 | 1017.5 |
| 20260502050921 | 54 | 105 | 0.0 | 0.0 | 0.00 | 0.00 | 0.00 | 99 | 1017.2 |
| 20260502050417 | 54 | 96 | 0.0 | 0.0 | 0.00 | 0.00 | 0.00 | 99 | 1017.3 |
| 20260502045915 | 54 | 95 | 0.0 | 0.0 | 0.00 | 0.03 | 0.03 | 99 | 1017.3 |
| 20260502045411 | 54 | 99 | 0.0 | 0.0 | 0.00 | 0.03 | 0.03 | 99 | 1017.3 |
| 20260502044909 | 54 | 107 | 0.0 | 0.0 | 0.00 | 0.03 | 0.03 | 99 | 1017.3 |
| 20260502044404 | 54 | 106 | 0.0 | 0.0 | 0.05 | 0.03 | 0.03 | 99 | 1017.4 |
| 20260502043901 | 54 | 109 | 0.0 | 0.0 | 0.05 | 0.03 | 0.03 | 99 | 1017.1 |
| 20260502043359 | 55 | 104 | 0.0 | 0.0 | 0.00 | 0.02 | 0.02 | 99 | 1017.2 |
| 20260502042858 | 55 | 112 | 0.0 | 0.0 | 0.00 | 0.02 | 0.02 | 99 | 1017.3 |
| 20260502042355 | 54 | 114 | 0.0 | 0.0 | 0.00 | 0.02 | 0.02 | 99 | 1017.2 |
| 20260502041853 | 54 | 107 | 0.0 | 0.0 | 0.00 | 0.02 | 0.02 | 99 | 1017.0 |
| 20260502041350 | 54 | 99 | 0.0 | 0.0 | 0.00 | 0.02 | 0.02 | 99 | 1017.2 |
| 20260502040847 | 55 | 93 | 0.0 | 0.0 | 0.00 | 0.02 | 0.02 | 99 | 1017.1 |
| 20260502040344 | 55 | 117 | 0.0 | 0.0 | 0.00 | 0.02 | 0.02 | 99 | 1017.0 |
| 20260502035840 | 55 | 112 | 0.0 | 0.0 | 0.00 | 0.02 | 0.02 | 99 | 1017.0 |
| 20260502035337 | 55 | 109 | 0.0 | 0.0 | 0.00 | 0.02 | 0.02 | 99 | 1017.0 |
| 20260502034834 | 55 | 109 | 0.0 | 0.0 | 0.00 | 0.02 | 0.02 | 99 | 1017.3 |
| 20260502034333 | 55 | 97 | 0.0 | 0.0 | 0.00 | 0.02 | 0.02 | 99 | 1017.4 |
| 20260502033831 | 54 | 97 | 0.0 | 0.0 | 0.00 | 0.02 | 0.02 | 99 | 1017.1 |
| 20260502033328 | 54 | 117 | 0.0 | 0.0 | 0.00 | 0.02 | 0.02 | 99 | 1017.2 |
| 20260502032825 | 54 | 96 | 0.0 | 0.0 | 0.00 | 0.02 | 0.02 | 99 | 1016.9 |
| 20260502032320 | 54 | 103 | 0.0 | 0.0 | 0.00 | 0.02 | 0.02 | 99 | 1016.8 |
| 20260502031818 | 55 | 103 | 0.0 | 0.0 | 0.00 | 0.02 | 0.02 | 99 | 1016.8 |
| 20260502031316 | 55 | 111 | 0.0 | 0.0 | 0.00 | 0.02 | 0.02 | 99 | 1016.9 |
| 20260502030815 | 54 | 111 | 0.0 | 0.0 | 0.00 | 0.02 | 0.02 | 99 | 1016.8 |
| 20260502030312 | 55 | 106 | 0.0 | 0.0 | 0.00 | 0.02 | 0.02 | 99 | 1016.7 |
| 20260502025809 | 55 | 107 | 0.0 | 0.0 | 0.00 | 0.02 | 0.02 | 99 | 1016.6 |
| 20260502025308 | 55 | 115 | 0.0 | 0.0 | 0.00 | 0.02 | 0.02 | 99 | 1016.7 |
| 20260502024805 | 55 | 115 | 0.0 | 0.0 | 0.00 | 0.02 | 0.02 | 99 | 1016.5 |
| 20260502024302 | 55 | 115 | 0.0 | 0.0 | 0.00 | 0.02 | 0.02 | 99 | 1016.4 |
| 20260502023800 | 55 | 106 | 0.0 | 0.0 | 0.00 | 0.02 | 0.02 | 99 | 1016.7 |
| 20260502023258 | 55 | 105 | 0.0 | 0.0 | 0.00 | 0.02 | 0.02 | 99 | 1016.3 |
| 20260502022755 | 55 | 105 | 0.0 | 0.0 | 0.00 | 0.02 | 0.02 | 99 | 1016.2 |
| 20260502022251 | 55 | 105 | 0.0 | 0.0 | 0.00 | 0.02 | 0.02 | 99 | 1016.2 |
| 20260502021748 | 55 | 99 | 0.0 | 1.0 | 0.00 | 0.02 | 0.02 | 99 | 1016.6 |
| 20260502021246 | 55 | 111 | 0.0 | 0.0 | 0.00 | 0.02 | 0.02 | 99 | 1016.7 |
| 20260502020743 | 55 | 111 | 0.0 | 0.0 | 0.00 | 0.02 | 0.02 | 99 | 1016.5 |
| 20260502020240 | 55 | 111 | 0.0 | 0.0 | 0.00 | 0.02 | 0.02 | 99 | 1016.2 |
| 20260502015738 | 55 | 112 | 0.0 | 0.0 | 0.00 | 0.02 | 0.02 | 99 | 1016.3 |
| 20260502015234 | 55 | 102 | 0.0 | 0.0 | 0.00 | 0.02 | 0.02 | 99 | 1016.1 |
| 20260502014732 | 55 | 100 | 0.0 | 0.0 | 0.00 | 0.02 | 0.02 | 99 | 1016.2 |
| 20260502014228 | 55 | 94 | 0.0 | 0.0 | 0.00 | 0.02 | 0.02 | 99 | 1016.7 |
| 20260502013725 | 55 | 97 | 0.0 | 0.0 | 0.00 | 0.02 | 0.02 | 99 | 1017.1 |
| 20260502013220 | 55 | 118 | 0.0 | 0.0 | 0.00 | 0.02 | 0.02 | 99 | 1017.1 |
| 20260502012717 | 55 | 121 | 0.0 | 0.0 | 0.00 | 0.02 | 0.02 | 99 | 1016.7 |
| 20260502012215 | 55 | 115 | 0.0 | 0.0 | 0.00 | 0.02 | 0.02 | 99 | 1016.4 |
| 20260502011712 | 55 | 98 | 0.0 | 0.0 | 0.00 | 0.02 | 0.02 | 99 | 1016.0 |
| 20260502011208 | 55 | 102 | 0.0 | 0.0 | 0.00 | 0.02 | 0.02 | 99 | 1016.0 |
| 20260502010706 | 55 | 109 | 0.0 | 0.0 | 0.00 | 0.02 | 0.02 | 99 | 1016.1 |
| 20260502010201 | 55 | 120 | 0.0 | 0.0 | 0.00 | 0.02 | 0.02 | 99 | 1016.1 |
| 20260502005659 | 55 | 121 | 0.0 | 0.0 | 0.00 | 0.02 | 0.02 | 99 | 1015.9 |
| 20260502005156 | 55 | 123 | 0.0 | 0.0 | 0.00 | 0.02 | 0.02 | 99 | 1015.7 |
| 20260502004652 | 55 | 118 | 0.0 | 0.0 | 0.00 | 0.02 | 0.02 | 99 | 1015.4 |
| 20260502004149 | 55 | 116 | 0.0 | 0.0 | 0.00 | 0.02 | 0.02 | 99 | 1015.3 |
| 20260502003647 | 55 | 101 | 0.0 | 0.0 | 0.00 | 0.02 | 0.02 | 99 | 1015.0 |
| 20260502003144 | 56 | 103 | 0.0 | 0.0 | 0.00 | 0.02 | 0.02 | 99 | 1014.9 |
| 20260502002640 | 56 | 102 | 0.0 | 0.0 | 0.00 | 0.02 | 0.02 | 99 | 1015.4 |
| 20260502002138 | 56 | 103 | 0.0 | 0.0 | 0.00 | 0.02 | 0.02 | 99 | 1015.7 |
| 20260502001635 | 56 | 120 | 0.0 | 0.0 | 0.00 | 0.02 | 0.02 | 99 | 1015.7 |
| 20260502001132 | 56 | 117 | 0.0 | 0.0 | 0.00 | 0.02 | 0.02 | 99 | 1015.5 |
| 20260502000630 | 56 | 100 | 0.0 | 0.0 | 0.00 | 0.02 | 0.02 | 99 | 1015.0 |
| 20260502000128 | 56 | 109 | 0.0 | 0.0 | 0.00 | 0.02 | 0.02 | 99 | 1014.9 |
| 20260501235623 | 56 | 103 | 0.0 | 0.0 | 0.00 | 0.02 | 0.02 | 99 | 1014.8 |
| 20260501235120 | 56 | 96 | 0.0 | 0.0 | 0.00 | 0.02 | 0.02 | 99 | 1015.2 |
| 20260501234615 | 56 | 112 | 0.0 | 0.0 | 0.00 | 0.02 | 0.02 | 99 | 1015.1 |
| 20260501234113 | 57 | 102 | 0.0 | 0.0 | 0.00 | 0.02 | 0.02 | 99 | 1014.7 |
| 20260501233611 | 56 | 112 | 0.0 | 0.0 | 0.00 | 0.02 | 0.02 | 98 | 1014.9 |
| 20260501233108 | 56 | 104 | 0.0 | 0.0 | 0.00 | 0.02 | 0.02 | 98 | 1014.8 |
| 20260501232604 | 56 | 99 | 0.0 | 0.0 | 0.00 | 0.02 | 0.02 | 98 | 1014.6 |
| 20260501232101 | 57 | 105 | 0.0 | 0.0 | 0.00 | 0.02 | 0.02 | 98 | 1015.1 |
| 20260501231559 | 57 | 117 | 0.0 | 0.0 | 0.00 | 0.02 | 0.02 | 98 | 1014.9 |
| 20260501231057 | 57 | 122 | 0.0 | 0.0 | 0.00 | 0.02 | 0.02 | 98 | 1014.9 |
| 20260501230555 | 57 | 109 | 0.0 | 0.0 | 0.00 | 0.02 | 0.02 | 98 | 1014.6 |
| 20260501230053 | 57 | 109 | 0.0 | 0.0 | 0.00 | 0.02 | 0.02 | 98 | 1014.6 |
| 20260501225550 | 57 | 115 | 0.0 | 0.0 | 0.00 | 0.02 | 0.02 | 98 | 1014.5 |
| 20260501225046 | 56 | 116 | 0.0 | 0.0 | 0.00 | 0.02 | 0.02 | 98 | 1014.5 |
| 20260501224544 | 57 | 108 | 0.0 | 0.0 | 0.00 | 0.02 | 0.02 | 99 | 1014.4 |
| 20260501224041 | 57 | 101 | 0.0 | 0.0 | 0.00 | 0.02 | 0.02 | 98 | 1014.0 |
| 20260501223537 | 56 | 106 | 0.0 | 0.0 | 0.00 | 0.02 | 0.02 | 98 | 1014.2 |
| 20260501223033 | 56 | 106 | 0.0 | 0.0 | 0.00 | 0.02 | 0.02 | 98 | 1014.2 |
| 20260501222530 | 56 | 110 | 0.0 | 0.0 | 0.00 | 0.02 | 0.02 | 98 | 1014.0 |
| 20260501222027 | 57 | 86 | 0.0 | 0.0 | 0.00 | 0.02 | 0.02 | 98 | 1014.4 |
| 20260501221523 | 56 | 117 | 0.0 | 0.0 | 0.00 | 0.02 | 0.02 | 98 | 1014.3 |
| 20260501221021 | 56 | 99 | 0.0 | 0.0 | 0.00 | 0.02 | 0.02 | 97 | 1014.1 |
| 20260501220519 | 57 | 90 | 0.0 | 0.0 | 0.00 | 0.02 | 0.02 | 97 | 1014.3 |
| 20260501220015 | 57 | 114 | 0.0 | 0.0 | 0.00 | 0.02 | 0.02 | 97 | 1014.1 |
| 20260501215511 | 56 | 126 | 0.0 | 0.0 | 0.00 | 0.02 | 0.02 | 96 | 1013.5 |
| 20260501215007 | 56 | 108 | 0.0 | 0.0 | 0.00 | 0.02 | 0.02 | 96 | 1013.3 |
| 20260501214503 | 56 | 82 | 0.0 | 0.0 | 0.00 | 0.02 | 0.02 | 95 | 1013.1 |
| 20260501213958 | 56 | 102 | 0.0 | 1.0 | 0.00 | 0.02 | 0.02 | 95 | 1012.8 |
| 20260501213455 | 56 | 93 | 0.0 | 0.0 | 0.00 | 0.02 | 0.02 | 96 | 1013.2 |
| 20260501212950 | 56 | 111 | 0.0 | 0.0 | 0.00 | 0.02 | 0.02 | 97 | 1013.0 |
| 20260501212447 | 56 | 98 | 0.0 | 0.0 | 0.00 | 0.02 | 0.02 | 98 | 1012.9 |
| 20260501211944 | 56 | 106 | 0.0 | 0.0 | 0.00 | 0.02 | 0.02 | 98 | 1013.0 |
| 20260501211442 | 56 | 101 | 0.0 | 0.0 | 0.00 | 0.02 | 0.02 | 98 | 1013.2 |
| 20260501210939 | 56 | 103 | 0.0 | 0.0 | 0.00 | 0.02 | 0.02 | 99 | 1013.8 |
| 20260501210435 | 55 | 116 | 0.0 | 0.0 | 0.00 | 0.02 | 0.02 | 99 | 1013.6 |
| 20260501205932 | 55 | 105 | 0.0 | 0.0 | 0.00 | 0.02 | 0.02 | 99 | 1014.0 |
| 20260501205429 | 55 | 99 | 0.0 | 0.0 | 0.00 | 0.02 | 0.02 | 99 | 1014.1 |
| 20260501204926 | 55 | 96 | 0.0 | 0.0 | 0.00 | 0.02 | 0.02 | 99 | 1014.8 |
| 20260501204422 | 55 | 105 | 0.0 | 0.0 | 0.00 | 0.02 | 0.02 | 98 | 1014.7 |
| 20260501203918 | 55 | 132 | 0.0 | 1.0 | 0.00 | 0.02 | 0.02 | 99 | 1014.9 |
| 20260501203416 | 55 | 108 | 0.0 | 0.0 | 0.00 | 0.02 | 0.02 | 98 | 1014.7 |
| 20260501202913 | 55 | 117 | 0.0 | 0.0 | 0.00 | 0.02 | 0.02 | 97 | 1014.9 |
| 20260501202410 | 55 | 100 | 0.0 | 0.0 | 0.00 | 0.02 | 0.02 | 96 | 1014.7 |
| 20260501201907 | 55 | 97 | 0.0 | 0.0 | 0.00 | 0.02 | 0.02 | 95 | 1015.0 |
| 20260501201403 | 55 | 105 | 0.0 | 0.0 | 0.00 | 0.02 | 0.02 | 96 | 1015.1 |
| 20260501200900 | 55 | 103 | 0.0 | 0.0 | 0.00 | 0.02 | 0.02 | 95 | 1015.4 |
| 20260501200357 | 55 | 117 | 0.0 | 0.0 | 0.07 | 0.02 | 0.02 | 94 | 1014.8 |
| 20260501195855 | 55 | 128 | 0.0 | 0.0 | 0.07 | 0.02 | 0.02 | 95 | 1013.9 |